Volver al catálogo

STARLINK-5463

ActivoComunicacionesVLEO
NORAD 55673·PAYLOAD·🇺🇸 United States

Lanzado Feb 17, 2023 desde Vandenberg Space Force Base

Loading…

Próximos Pases (próximas 24 horas)

TLE

ActualizadoSource: CelesTrak SupGP

Época: Sep 15, 2026, 02:59 UTC

1 55673C 23021AX  26258.12479167 -.00026519  00000+0 -22224-2 0  2580
2 55673  70.0021  46.7300 0003028 267.9796  45.4277 14.98343712    19

Sigue STARLINK-5463 en tiempo real con AllMySat

Download on the App Store